RH
35 34 33 32 31 30 29 27 23 21 21 22 22 22 21 22 23 23 24 23 23 22 22 22 22 21 20 19 18 17 16 15 15 15 14 14 13 13 13 12 12 12 12 12 12 12 12 12 11 11 11 10
35 34 33 32 31 30 29 27 24 21 22 23 23 24 23 22 22 23 24 23 23 23 23 22 21 21 20 19 18 17 16 16 16 16 15 15 14 13 13 12 12 13 13 12 12 12 12 12 12 12 11 11
33 32 32 32 31 30 29 27 25 22 22 23 24 25 25 24 22 23 23 23 23 23 22 22 21 20 19 19 18 18 18 17 17 17 16 16 15 14 13 13 12 13 13 13 13 13 13 13 13 12 12 11
32 31 31 32 32 31 30 28 26 24 23 24 25 25 26 25 24 23 22 22 22 23 22 21 20 19 19 19 19 19 19 18 18 18 18 17 16 15 14 13 13 13 14 14 14 14 14 14 14 14 13 12
35 34 34 34 33 32 30 28 26 24 24 25 26 26 26 26 25 24 23 22 21 21 21 20 19 19 19 20 20 20 20 20 20 19 19 18 17 16 15 14 14 15 15 16 16 16 16 15 15 15 14 14
36 37 36 35 33 31 28 26 25 24 24 25 25 25 26 25 26 26 25 23 22 21 20 19 18 17 18 18 19 20 20 20 20 20 19 18 17 16 16 16 17 18 18 18 18 18 18 17 16 16 16 16
35 35 34 33 31 28 26 25 25 24 24 24 24 24 24 25 25 26 26 26 25 23 22 20 19 18 17 17 17 17 17 18 18 18 18 18 18 18 18 19 20 21 21 21 20 19 19 18 17 17 17 17
34 33 32 32 31 30 29 28 28 25 24 24 24 24 24 24 25 26 27 27 27 25 24 22 21 20 19 18 18 17 16 17 17 17 18 19 20 21 21 22 23 23 23 22 22 21 21 21 20 20 20 19
34 33 33 33 34 34 33 33 33 30 26 25 24 24 24 24 24 25 26 27 27 27 26 25 24 23 21 21 21 20 19 19 20 20 21 22 22 24 24 24 24 24 24 24 24 24 24 24 24 24 23 23
33 34 34 34 36 36 37 37 37 34 30 26 24 24 24 24 24 24 25 26 27 28 28 27 27 26 25 24 24 24 24 24 24 24 24 25 25 26 27 27 27 27 27 27 27 27 27 27 27 27 26 26
34 35 36 36 37 38 39 39 39 38 35 30 27 26 25 25 25 25 26 27 28 29 30 30 30 29 29 28 28 28 28 28 28 29 29 29 29 30 30 30 30 30 30 30 30 30 30 29 29 29 28 28
37 37 37 38 39 39 40 40 41 40 39 36 32 29 28 28 27 28 28 29 30 32 32 33 33 33 32 32 32 32 32 32 32 32 33 32 33 33 32 33 32 33 33 33 33 32 32 31 31 31 31 31
40 39 39 39 40 41 42 42 42 42 41 41 39 36 35 34 34 34 34 35 35 35 36 35 35 35 35 35 34 34 34 34 35 35 35 36 35 35 35 35 35 35 35 35 35 35 34 34 34 34 34 33
40 41 42 42 43 43 43 43 43 44 44 43 43 41 40 40 40 40 40 40 40 40 40 39 38 37 37 37 38 38 38 38 38 38 38 39 39 39 38 38 38 38 38 37 37 37 36 36 36 36 36 36
38 40 41 42 42 43 43 44 44 44 45 45 45 44 43 43 44 44 45 45 45 45 45 43 43 42 41 41 41 42 42 42 42 42 43 43 42 42 42 42 42 42 41 40 40 40 39 39 39 39 38 38
36 38 39 40 41 43 45 47 47 47 47 47 47 46 46 46 47 48 49 50 50 49 48 47 46 46 46 45 46 46 47 46 47 47 47 47 47 47 47 47 47 47 46 45 45 45 44 44 43 43 43 42
35 36 36 38 39 42 44 46 46 46 47 48 48 48 48 48 48 48 49 50 50 48 48 48 48 48 49 50 51 51 51 50 51 51 51 52 52 52 53 52 52 52 51 51 51 50 50 49 49 48 48 47
34 34 35 36 36 38 39 40 41 41 42 44 46 47 47 47 46 47 47 48 47 47 47 48 49 50 52 53 54 55 55 54 54 55 55 56 56 57 57 57 57 57 56 56 55 55 55 54 54 53 52 51
36 37 37 38 39 39 40 40 41 42 43 44 45 47 47 47 47 47 48 48 48 49 49 50 50 52 55 58 59 59 60 60 60 60 60 60 60 60 60 60 61 61 61 60 60 60 60 60 59 58 57 57
40 41 42 43 43 44 44 45 46 47 48 49 49 49 49 49 49 49 50 50 51 51 52 52 53 55 58 60 61 63 64 65 65 65 65 65 65 64 64 65 65 65 65 65 64 64 64 65 65 65 65 64
44 44 45 45 46 46 47 48 49 51 52 52 52 52 52 52 52 52 53 53 54 54 55 55 56 57 59 60 61 64 67 69 69 70 70 70 70 70 70 70 70 70 70 69 68 68 68 69 69 70 70 70
46 46 47 47 48 49 49 50 52 54 54 55 55 55 54 54 55 55 56 57 57 57 58 59 59 60 60 61 62 64 66 69 71 72 73 73 74 75 76 75 75 76 75 74 74 74 73 74 73 72 73 73
46 47 47 48 49 50 52 54 56 56 57 57 57 56 56 57 57 58 59 60 60 60 60 61 61 62 62 62 63 63 64 65 68 70 73 75 75 76 78 79 79 79 78 77 77 77 77 77 77 77 76 76
46 46 46 48 50 53 56 59 58 58 57 57 56 56 57 59 60 60 61 61 61 62 62 63 63 64 64 64 64 64 65 66 69 71 72 73 73 73 74 76 79 80 80 79 77 78 79 79 80 80 80 81
45 46 48 51 55 57 59 61 59 58 57 56 56 56 57 60 61 60 61 61 62 62 63 64 65 65 66 67 67 68 68 71 73 74 75 75 75 75 74 75 80 83 83 83 80 80 79 79 82 84 85 86
48 49 51 55 59 60 61 62 60 58 57 57 58 58 57 59 61 60 60 61 61 62 63 64 65 66 67 68 70 71 72 75 76 77 78 77 76 77 78 79 81 84 85 85 84 83 80 79 81 84 89 90
52 53 54 56 58 60 61 61 60 59 59 60 61 61 58 58 59 58 59 60 61 61 62 62 64 65 67 68 69 70 72 73 75 76 76 76 76 76 77 78 79 82 85 86 85 84 83 81 79 78 83 86
55 56 57 58 59 60 60 61 61 61 62 62 62 61 58 56 57 57 57 59 59 60 60 61 62 63 65 66 67 68 69 69 70 71 72 73 73 72 71 72 74 76 79 82 83 83 81 79 78 77 78 78
57 58 58 59 60 60 60 61 61 61 62 62 61 60 59 57 57 58 59 59 59 60 61 61 62 64 64 65 65 65 65 65 64 64 65 65 64 63 63 63 64 64 65 67 70 72 72 70 68 68 69 70
58 59 59 60 60 60 61 61 61 61 61 61 61 61 61 61 60 60 60 60 60 61 61 62 62 61 61 59 58 57 56 55 54 53 54 53 52 52 51 51 50 50 50 50 51 54 57 61 62 58 55 56
60 61 61 61 62 62 61 61 62 62 61 61 61 61 61 61 61 60 59 60 59 59 58 57 55 53 51 49 47 46 45 44 44 44 44 42 41 40 38 39 39 39 40 38 38 40 41 44 49 50 46 45